Weather History for KCQX - May, 2013

Change the Weather History Date:

Friday, May 3, 2013

  Actual Average Record
Temperature  
Mean Temperature 46 °F -  
Max Temperature 51 °F 56 °F 87 °F (2001)
Min Temperature 42 °F 42 °F 36 °F (2015)
Degree Days  
Heating Degree Days 19    
Moisture  
Dew Point 41 °F    
Average Humidity 81    
Maximum Humidity 92    
Minimum Humidity 71    
Precipitation  
Precipitation 0.00 in - - ()
Sea Level Pressure  
Sea Level Pressure 30.44 in    
Wind  
Wind Speed 7 mph (NE)    
Max Wind Speed 15 mph    
Max Gust Speed 25 mph    
Visibility 10 miles    
Events      
Averages and records for this station are not official NWS values.
T = Trace of Precipitation, MM = Missing Value Source: NWS Daily Summary

Daily Weather History Graph

Daily Weather History Graph

Search for Another Location

Airport or City:

Trip Planner

Search our weather history database for the weather conditions in past years. The results will help you decide how hot, cold, wet, or windy it might be!

Date:

Astronomy

May. 03, 2013 Rise Set
Actual Time 5:33 AM EDT 7:40 PM EDT
Civil Twilight 5:03 AM EDT 8:11 PM EDT
Nautical Twilight 4:25 AM EDT 8:48 PM EDT
Astronomical Twilight 3:45 AM EDT 9:29 PM EDT
Moon 2:01 AM EDT (5/3) 1:26 PM EDT (5/3)
Length of Visible Light 15h 07m
Length of Day
14h 06m
Last Quarter, 37% of the Moon is Illuminated
May 3
Last Quarter
May 9
New
May 18
First Quarter
May 25
Full
May 31
Last Quarter

Hourly Weather History & Observations

Time (EDT) Temp. Windchill Dew Point Humidity Pressure Visibility Wind Dir Wind Speed Gust Speed Precip Events Conditions
12:11 AM 46.4 °F 45.2 °F 42.8 °F 87% 30.45 in 10.0 mi East 3.5 mph - N/A   Mostly Cloudy
12:52 AM 46.0 °F 43.9 °F 42.1 °F 86% 30.46 in 10.0 mi ENE 4.6 mph - N/A   Mostly Cloudy
1:01 AM 46.4 °F - 42.8 °F 87% 30.45 in 10.0 mi Calm Calm - N/A   Scattered Clouds
1:52 AM 45.0 °F 43.5 °F 41.0 °F 86% 30.44 in 10.0 mi NE 3.5 mph - N/A   Partly Cloudy
2:52 AM 44.1 °F 42.5 °F 39.9 °F 85% 30.43 in 10.0 mi NNE 3.5 mph - N/A   Clear
3:52 AM 44.1 °F 42.5 °F 39.9 °F 85% 30.43 in 10.0 mi NNE 3.5 mph - N/A   Clear
4:52 AM 43.0 °F 41.3 °F 39.0 °F 86% 30.44 in 10.0 mi North 3.5 mph - N/A   Clear
5:52 AM 44.1 °F 41.5 °F 39.9 °F 85% 30.45 in 10.0 mi North 4.6 mph - N/A   Clear
6:52 AM 46.9 °F - 39.9 °F 77% 30.47 in 10.0 mi NNE 11.5 mph 20.7 mph N/A   Scattered Clouds
7:09 AM 48.2 °F - 41.0 °F 76% 30.47 in 10.0 mi NE 12.7 mph 19.6 mph N/A   Mostly Cloudy
7:52 AM 48.0 °F - 41.0 °F 77% 30.48 in 10.0 mi NE 12.7 mph 21.9 mph N/A   Overcast
8:14 AM 48.2 °F - 41.0 °F 76% 30.48 in 10.0 mi NE 13.8 mph 23.0 mph N/A   Overcast
8:48 AM 48.2 °F - 41.0 °F 76% 30.47 in 10.0 mi NE 13.8 mph 23.0 mph N/A   Overcast
8:52 AM 48.9 °F - 41.0 °F 74% 30.48 in 10.0 mi NE 13.8 mph 23.0 mph N/A   Overcast
9:52 AM 48.9 °F - 41.0 °F 74% 30.48 in 10.0 mi NE 12.7 mph 21.9 mph N/A   Overcast
10:52 AM 50.0 °F - 42.1 °F 74% 30.48 in 10.0 mi NNE 12.7 mph 19.6 mph N/A   Overcast
11:08 AM 48.2 °F - 42.8 °F 82% 30.48 in 10.0 mi NNE 12.7 mph 20.7 mph N/A   Overcast
12:52 PM 48.9 °F - 42.1 °F 77% 30.46 in 10.0 mi NE 13.8 mph 23.0 mph N/A   Overcast
1:05 PM 48.2 °F - 42.8 °F 82% 30.45 in 10.0 mi NNE 15.0 mph 23.0 mph N/A   Overcast
1:52 PM 50.0 °F - 43.0 °F 77% 30.45 in 10.0 mi NNE 9.2 mph 21.9 mph N/A   Overcast
2:52 PM 50.0 °F - 42.1 °F 74% 30.45 in 10.0 mi NNE 12.7 mph 25.3 mph N/A   Overcast
3:02 PM 50.0 °F - 42.8 °F 76% 30.44 in 10.0 mi NNE 11.5 mph 23.0 mph N/A   Overcast
3:52 PM 50.0 °F - 41.0 °F 71% 30.43 in 10.0 mi NE 15.0 mph 23.0 mph N/A   Overcast
4:16 PM 50.0 °F - 42.8 °F 76% 30.41 in 10.0 mi NNE 12.7 mph 20.7 mph N/A   Overcast
4:52 PM 48.9 °F - 42.1 °F 77% 30.42 in 10.0 mi NNE 9.2 mph 19.6 mph N/A   Overcast
5:30 PM 46.4 °F 42.4 °F 41.0 °F 81% 30.41 in 10.0 mi NE 8.1 mph 20.7 mph N/A   Overcast
5:52 PM 46.0 °F 40.2 °F 41.0 °F 83% 30.42 in 10.0 mi NE 12.7 mph 19.6 mph N/A   Overcast
6:52 PM 46.0 °F 41.9 °F 41.0 °F 83% 30.41 in 10.0 mi ENE 8.1 mph - N/A   Overcast
7:52 PM 46.0 °F 43.9 °F 41.0 °F 83% 30.40 in 10.0 mi NE 4.6 mph - N/A   Overcast
8:52 PM 45.0 °F - 42.1 °F 90% 30.40 in 10.0 mi Calm Calm - N/A   Overcast
9:52 PM 45.0 °F - 42.1 °F 90% 30.40 in 10.0 mi Calm Calm - N/A   Overcast
10:30 PM 42.8 °F 41.1 °F 39.2 °F 87% 30.38 in 10.0 mi NW 3.5 mph - N/A   Partly Cloudy
10:52 PM 42.1 °F - 39.9 °F 92% 30.38 in 10.0 mi Calm Calm - N/A   Clear
11:52 PM 45.0 °F 42.6 °F 42.1 °F 90% 30.38 in 10.0 mi NNE 4.6 mph - N/A   Clear